Weather History for Tracy, MN

Change the Weather History Date:

Tuesday, May 14, 2013

  Actual Average (KMML) Record (KMML)
Temperature  
Mean Temperature 78 °F -  
Max Temperature 96 °F 71 °F 96 °F (2013)
Min Temperature 61 °F 47 °F 30 °F (2004)
Cooling Degree Days 14    
Growing Degree Days 28 (Base 50)    
Moisture  
Dew Point 42 °F    
Average Humidity 30    
Maximum Humidity 55    
Minimum Humidity 11    
Precipitation  
Precipitation 0.00 in - - ()
Sea Level Pressure  
Sea Level Pressure 29.66 in    
Wind  
Wind Speed 9 mph (West)    
Max Wind Speed 28 mph    
Max Gust Speed 37 mph    
Visibility 10 miles    
Events      
Averages and records for this station are not official NWS values.
T = Trace of Precipitation, MM = Missing Value Source: NWS Daily Summary

Daily Weather History Graph

Daily Weather History Graph

Search for Another Location

Airport:

Trip Planner

Search our weather history database for the weather conditions in past years. The results will help you decide how hot, cold, wet, or windy it might be!

Date:

Astronomy

May. 14, 2013 Rise Set
Actual Time 5:56 AM CDT 8:41 PM CDT
Civil Twilight 5:22 AM CDT 9:15 PM CDT
Nautical Twilight 4:40 AM CDT 9:57 PM CDT
Astronomical Twilight 3:51 AM CDT 10:47 PM CDT
Moon 9:37 AM CDT (5/14) No Moon Set
Length of Visible Light 15h 52m
Length of Day
14h 45m
Waxing Crescent, 19% of the Moon is Illuminated
May 14
Waxing Crescent
May 17
First Quarter
May 24
Full
May 31
Last Quarter
Jun 8
New

Hourly Weather History & Observations

Time (CDT) Temp. Dew Point Humidity Pressure Visibility Wind Dir Wind Speed Gust Speed Precip Events Conditions
12:13 AM 70.0 °F 45.1 °F 41% 29.73 in 10.0 mi Calm Calm - N/A   Clear
12:33 AM 71.1 °F 44.1 °F 38% 29.73 in 10.0 mi Calm Calm - N/A   Clear
12:54 AM 70.0 °F 43.9 °F 39% 29.73 in 10.0 mi Calm Calm - N/A   Clear
1:13 AM 70.3 °F 43.2 °F 37% 29.73 in 10.0 mi Calm Calm - N/A   Clear
1:33 AM 65.3 °F 43.9 °F 46% 29.73 in 10.0 mi Calm Calm - N/A   Clear
1:54 AM 64.6 °F 44.2 °F 48% 29.72 in 10.0 mi Calm Calm - N/A   Clear
2:13 AM 64.6 °F 43.9 °F 47% 29.72 in 10.0 mi Calm Calm - N/A   Clear
2:34 AM 62.8 °F 44.6 °F 51% 29.73 in 10.0 mi Calm Calm - N/A   Clear
2:53 AM 62.4 °F 44.6 °F 52% 29.73 in 10.0 mi Calm Calm - N/A   Clear
3:14 AM 62.4 °F 44.6 °F 52% 29.72 in 10.0 mi Calm Calm - N/A   Clear
3:33 AM 61.7 °F 44.6 °F 53% 29.72 in 10.0 mi Calm Calm - N/A   Clear
3:53 AM 62.8 °F 44.2 °F 51% 29.71 in 10.0 mi Calm Calm - N/A   Clear
4:14 AM 61.0 °F 44.6 °F 55% 29.70 in 10.0 mi Calm Calm - N/A   Clear
4:34 AM 61.2 °F 44.6 °F 54% 29.69 in 10.0 mi Calm Calm - N/A   Clear
4:53 AM 61.7 °F 43.9 °F 52% 29.69 in 10.0 mi Calm Calm - N/A   Clear
5:13 AM 62.4 °F 43.7 °F 50% 29.69 in 10.0 mi Calm Calm - N/A   Clear
5:34 AM 64.2 °F 43.3 °F 47% 29.68 in 10.0 mi Calm Calm - N/A   Clear
5:54 AM 64.8 °F 43.5 °F 46% 29.69 in 10.0 mi SSW 16.1 mph - N/A   Clear
6:13 AM 62.6 °F 44.8 °F 52% 29.68 in 10.0 mi SSW 15.0 mph - N/A   Clear
6:34 AM 64.8 °F 44.8 °F 48% 29.67 in 10.0 mi SSW 16.1 mph - N/A   Clear
6:53 AM 69.3 °F 44.6 °F 41% 29.66 in 10.0 mi SSW 9.2 mph 19.6 mph N/A   Clear
7:13 AM 71.1 °F 44.4 °F 38% 29.65 in 10.0 mi SSW 12.7 mph 17.3 mph N/A   Clear
7:34 AM 72.5 °F 44.6 °F 37% 29.65 in 10.0 mi Calm Calm - N/A   Clear
7:54 AM 75.2 °F 44.6 °F 34% 29.63 in 10.0 mi SSW 6.9 mph 20.7 mph N/A   Clear
8:14 AM 76.5 °F 45.1 °F 33% 29.61 in 10.0 mi South 6.9 mph 20.7 mph N/A   Clear
8:34 AM 78.3 °F 46.6 °F 33% 29.60 in 10.0 mi SSW 15.0 mph 24.2 mph N/A   Clear
8:54 AM 81.5 °F 47.7 °F 31% 29.60 in 10.0 mi SSW 17.3 mph 24.2 mph N/A   Clear
9:13 AM 81.9 °F 48.2 °F 31% 29.58 in 10.0 mi SSW 20.7 mph 33.4 mph N/A   Clear
9:34 AM 84.7 °F 48.9 °F 29% 29.58 in 10.0 mi SSW 20.7 mph 28.8 mph N/A   Clear
9:53 AM 86.7 °F 48.4 °F 26% 29.58 in 10.0 mi SSW 19.6 mph 27.6 mph N/A   Clear
10:14 AM 86.7 °F 46.2 °F 24% 29.58 in 10.0 mi SW 18.4 mph 26.5 mph N/A   Clear
10:33 AM 87.6 °F 47.8 °F 25% 29.57 in 10.0 mi SW 18.4 mph 28.8 mph N/A   Clear
10:53 AM 88.2 °F 48.0 °F 25% 29.56 in 10.0 mi SW 26.5 mph 32.2 mph N/A   Clear
11:14 AM 89.8 °F 48.0 °F 24% 29.55 in 10.0 mi SW 24.2 mph 32.2 mph N/A   Clear
11:32 AM 90.9 °F 48.0 °F 23% 29.55 in 10.0 mi SW 25.3 mph 35.7 mph N/A   Clear
11:53 AM 93.4 °F 46.8 °F 20% 29.54 in 10.0 mi WSW 24.2 mph 34.5 mph N/A   Clear
12:13 PM 94.1 °F 46.6 °F 20% 29.55 in 10.0 mi WSW 24.2 mph 36.8 mph N/A   Clear
12:34 PM 93.7 °F 46.2 °F 20% 29.56 in 10.0 mi West 13.8 mph 24.2 mph N/A   Clear
12:54 PM 93.4 °F 46.0 °F 20% 29.57 in 10.0 mi West 12.7 mph 26.5 mph N/A   Clear
1:13 PM 93.4 °F 45.3 °F 19% 29.57 in 10.0 mi West 15.0 mph 25.3 mph N/A   Clear
1:33 PM 93.6 °F 47.1 °F 20% 29.57 in 10.0 mi WNW 16.1 mph 24.2 mph N/A   Clear
1:53 PM 95.0 °F 46.2 °F 19% 29.57 in 10.0 mi NW 23.0 mph 28.8 mph N/A   Clear
2:13 PM 96.4 °F 45.1 °F 17% 29.57 in 10.0 mi NW 27.6 mph 35.7 mph N/A   Clear
2:33 PM 95.9 °F 45.5 °F 18% 29.57 in 10.0 mi NNW 25.3 mph 33.4 mph N/A   Clear
2:53 PM 96.3 °F 44.6 °F 17% 29.59 in 10.0 mi NNW 20.7 mph 29.9 mph N/A   Clear
3:13 PM 96.1 °F 40.3 °F 14% 29.59 in 10.0 mi NNW 24.2 mph 32.2 mph N/A   Clear
3:33 PM 96.3 °F 42.3 °F 16% 29.59 in 10.0 mi NNW 19.6 mph 29.9 mph N/A   Clear
3:53 PM 96.6 °F 38.5 °F 13% 29.60 in 10.0 mi NNW 20.7 mph 29.9 mph N/A   Clear
4:13 PM 95.2 °F 37.4 °F 13% 29.60 in 10.0 mi NNW 23.0 mph 32.2 mph N/A   Clear
4:33 PM 94.3 °F 39.2 °F 15% 29.61 in 10.0 mi NNW 26.5 mph 33.4 mph N/A   Clear
4:54 PM 93.7 °F 38.7 °F 15% 29.62 in 10.0 mi NW 25.3 mph 35.7 mph N/A   Clear
5:14 PM 93.0 °F 39.7 °F 16% 29.63 in 10.0 mi NW 27.6 mph 33.4 mph N/A   Clear
5:33 PM 91.6 °F 36.1 °F 14% 29.64 in 10.0 mi NW 25.3 mph 32.2 mph N/A   Clear
5:53 PM 90.5 °F 34.7 °F 14% 29.64 in 10.0 mi NW 23.0 mph 29.9 mph N/A   Clear
6:14 PM 88.7 °F 35.1 °F 15% 29.65 in 10.0 mi NW 23.0 mph 31.1 mph N/A   Clear
6:34 PM 87.4 °F 28.6 °F 12% 29.66 in 10.0 mi NW 23.0 mph 35.7 mph N/A   Clear
6:53 PM 85.6 °F 26.1 °F 11% 29.66 in 10.0 mi NW 25.3 mph 31.1 mph N/A   Clear
7:13 PM 84.2 °F 28.4 °F 13% 29.67 in 10.0 mi NNW 17.3 mph 26.5 mph N/A   Clear
7:33 PM 83.3 °F 29.1 °F 14% 29.68 in 10.0 mi NW 16.1 mph 26.5 mph N/A   Clear
7:54 PM 81.9 °F 29.1 °F 15% 29.68 in 10.0 mi NW 16.1 mph 23.0 mph N/A   Clear
8:13 PM 80.4 °F 29.5 °F 16% 29.69 in 10.0 mi NW 8.1 mph 18.4 mph N/A   Clear
8:34 PM 77.0 °F 31.6 °F 19% 29.69 in 10.0 mi Calm Calm - N/A   Clear
8:53 PM 76.5 °F 31.8 °F 20% 29.70 in 10.0 mi Calm Calm - N/A   Clear
9:13 PM 74.5 °F 32.0 °F 21% 29.72 in 10.0 mi Calm Calm - N/A   Clear
9:34 PM 74.1 °F 32.4 °F 22% 29.73 in 10.0 mi NW 11.5 mph 16.1 mph N/A   Clear
9:53 PM 72.7 °F 34.2 °F 24% 29.75 in 10.0 mi NNW 11.5 mph 18.4 mph N/A   Clear
10:13 PM 71.1 °F 37.6 °F 29% 29.76 in 10.0 mi NNW 13.8 mph 20.7 mph N/A   Clear
10:34 PM 70.3 °F 40.3 °F 34% 29.77 in 10.0 mi NNW 16.1 mph 21.9 mph N/A   Clear
10:54 PM 68.9 °F 42.8 °F 39% 29.78 in 10.0 mi NNW 18.4 mph 28.8 mph N/A   Clear
11:13 PM 66.9 °F 43.7 °F 43% 29.80 in 10.0 mi Calm Calm - N/A   Clear
11:33 PM 65.5 °F 43.9 °F 46% 29.81 in 10.0 mi Calm Calm - N/A   Clear
11:54 PM 65.3 °F 43.2 °F 45% 29.82 in 10.0 mi NNW 16.1 mph 24.2 mph N/A   Clear